Location: Zagreb
(45.8000°N, 16.0000°E)
Time: 04:01:11
(UTC+01:00)

Vanguard 1 - Visible Passes

Search period start: 25 January 2020 00:00
Search period end: 04 February 2020 00:00
Orbit: 651 x 3833 km, 34.2° (Epoch: 24 January)

Date Brightness Start Highest point End Pass type
(mag) Time Alt. Az. Time Alt. Az. Time Alt. Az.
25 Jan 11.1 18:36:27 10° SW 18:40:15 24° S 18:43:21 16° SE visible
25 Jan 12.4 20:55:38 10° WSW 20:56:04 12° SW 20:56:04 12° SW visible
26 Jan 11.2 18:57:11 10° SW 19:00:58 23° S 19:03:16 18° SSE visible
27 Jan 11.4 19:18:04 10° SW 19:21:44 21° S 19:23:13 19° SSE visible
28 Jan 11.2 17:19:47 10° SW 17:23:07 21° S 17:26:46 10° SE visible
28 Jan 11.7 19:39:08 10° SW 19:42:31 18° S 19:43:11 18° S visible
29 Jan 11.3 17:40:29 10° SW 17:43:50 21° S 17:47:31 10° SE visible
29 Jan 11.9 20:00:33 10° SW 20:03:11 14° SSW 20:03:11 14° SSW visible
30 Jan 11.4 18:01:20 10° SW 18:04:31 19° S 18:08:06 10° SE visible
30 Jan 12.3 20:23:13 10° SSW 20:23:14 10° SSW 20:23:14 10° SSW visible
31 Jan 11.6 18:22:22 10° SW 18:25:14 17° S 18:28:27 10° SSE visible
01 Feb 11.8 18:43:44 10° SW 18:45:57 13° SSW 18:48:23 10° SSE visible
